Temperature
11 11 10 10 10 9 9 10 10 10 10 13 13 12 14 15 15 15 15 15 15 14 14 13 12 12 11 11 10 9 9 8 8 7 6 6 6 5 5 4 4 4 3 3
11 11 10 11 10 9 9 10 10 10 10 12 12 13 13 14 14 14 15 15 15 14 14 13 13 12 11 10 10 9 8 8 7 6 6 6 5 5 4 4 4 3 3 2
9 11 10 10 10 10 9 9 10 11 12 12 11 10 12 14 14 15 15 15 14 14 14 13 13 12 11 10 9 8 8 7 7 6 6 5 5 4 4 3 3 3 2 2
8 9 10 11 11 11 10 10 9 10 11 11 11 13 13 14 14 15 14 14 14 14 13 13 12 11 10 9 8 8 7 7 6 6 5 5 4 4 3 3 3 2 2 2
7 8 9 10 11 10 10 10 10 10 10 11 11 11 12 14 14 14 14 13 13 13 12 12 11 10 9 8 8 7 7 6 6 5 5 4 4 3 3 2 2 2 1 1
6 8 9 11 12 11 11 11 11 10 9 9 9 9 11 13 13 13 13 13 12 12 11 11 10 9 8 8 7 7 6 6 5 4 4 4 3 3 2 2 1 1 1 0
7 8 8 10 11 11 11 12 13 12 11 10 9 11 13 13 13 12 12 12 11 11 10 10 9 8 7 7 6 6 5 5 4 4 3 3 3 2 2 1 1 1 0 -0
6 8 9 10 9 10 11 13 13 13 13 12 12 12 12 12 12 12 11 11 10 10 9 8 8 7 7 6 6 5 4 4 4 3 3 2 2 2 1 0 0 -0 -1 -1
8 10 10 11 12 13 13 13 14 14 14 13 12 12 12 12 11 11 10 10 9 8 8 7 7 6 6 5 5 4 4 3 3 3 2 2 1 1 0 -0 -1 -1 -2 -2
7 7 9 11 12 13 13 14 14 14 13 13 13 12 11 11 10 10 9 8 8 7 7 6 6 5 5 4 4 3 3 3 2 2 2 1 1 -0 -1 -1 -2 -2 -3 -3
7 7 8 11 13 13 13 13 13 13 13 12 12 11 11 10 10 9 8 7 7 6 6 5 5 4 4 3 3 3 2 2 2 1 1 0 -0 -1 -2 -2 -3 -3 -4 -5
9 9 9 11 15 14 13 13 13 12 12 11 11 10 10 9 9 8 7 7 6 5 5 4 4 3 3 3 2 2 2 2 1 1 -0 -1 -1 -2 -2 -3 -3 -4 -5 -5
12 13 13 13 13 13 13 13 12 11 11 11 10 9 9 8 8 7 6 6 5 4 4 3 3 3 2 2 2 1 1 1 0 -0 -1 -2 -2 -3 -3 -3 -4 -5 -5 -6
12 12 11 12 13 13 12 12 11 10 10 9 9 8 8 7 7 6 5 5 4 3 3 3 2 2 2 1 1 1 0 -0 -1 -1 -2 -3 -3 -4 -4 -5 -5 -5 -6 -7
11 11 12 12 12 11 11 10 10 9 9 8 8 7 7 6 6 5 4 3 3 3 2 2 2 2 1 1 0 -0 -1 -1 -2 -2 -3 -3 -4 -5 -5 -6 -7 -7 -7 -7
11 10 10 10 11 10 10 10 9 9 8 7 7 6 5 5 4 4 3 3 2 2 2 2 1 1 0 0 -0 -1 -1 -2 -3 -3 -4 -4 -5 -6 -6 -7 -8 -8 -8 -8
9 8 9 9 9 9 9 9 8 8 7 6 5 5 4 4 3 3 2 2 2 1 1 1 0 0 -0 -1 -1 -2 -2 -3 -3 -4 -5 -5 -6 -7 -7 -8 -8 -9 -9 -9
10 11 10 10 10 9 8 7 7 6 5 5 4 3 3 3 2 2 2 1 1 1 0 -0 -0 -1 -1 -2 -2 -3 -3 -4 -4 -5 -6 -7 -7 -8 -8 -9 -9 -9 -9 -10
8 8 8 8 8 7 7 6 5 4 4 3 3 2 2 2 1 1 1 1 0 0 -0 -1 -1 -1 -2 -3 -3 -4 -4 -5 -6 -6 -7 -8 -8 -9 -9 -9 -10 -10 -10 -10
7 7 7 6 6 6 5 4 4 3 3 2 2 2 1 1 1 0 0 -0 -0 -1 -1 -1 -2 -2 -3 -3 -4 -5 -6 -6 -7 -8 -8 -9 -9 -9 -10 -10 -10 -11 -11 -11
5 5 5 5 4 4 4 3 3 2 2 1 1 1 1 0 -0 -0 -1 -1 -1 -2 -2 -2 -3 -3 -4 -5 -6 -6 -7 -8 -8 -9 -9 -9 -10 -10 -11 -11 -11 -11 -12 -12
4 4 4 3 3 2 2 2 2 1 1 1 0 0 -0 -1 -1 -1 -1 -2 -2 -3 -3 -3 -4 -4 -5 -6 -7 -7 -8 -8 -9 -9 -10 -10 -11 -11 -11 -11 -12 -12 -12 -12
3 3 2 2 2 1 1 1 1 0 0 -0 -0 -1 -1 -1 -2 -2 -2 -3 -3 -3 -4 -4 -5 -6 -7 -7 -8 -8 -9 -9 -10 -10 -10 -11 -11 -12 -12 -12 -12 -13 -13 -13
2 1 1 1 1 1 0 -0 -0 -1 -1 -1 -1 -2 -2 -2 -3 -3 -3 -4 -4 -5 -5 -5 -6 -7 -8 -8 -8 -9 -9 -10 -10 -11 -11 -12 -12 -12 -12 -13 -13 -13 -13 -13
1 1 0 0 0 -0 -0 -1 -1 -1 -2 -2 -2 -3 -3 -3 -4 -4 -4 -4 -5 -5 -6 -6 -7 -7 -8 -8 -9 -9 -10 -11 -11 -12 -12 -12 -12 -12 -13 -13 -13 -13 -13 -13
0 -0 -0 -1 -1 -1 -1 -2 -2 -2 -2 -2 -3 -3 -3 -4 -4 -5 -5 -5 -6 -6 -7 -7 -8 -8 -9 -9 -10 -10 -11 -11 -11 -12 -12 -12 -12 -13 -13 -13 -13 -13 -13 -13
-1 -1 -1 -1 -2 -2 -2 -2 -3 -3 -3 -3 -3 -4 -4 -5 -5 -5 -6 -6 -7 -7 -8 -8 -9 -9 -10 -10 -11 -11 -11 -12 -12 -12 -12 -13 -13 -13 -13 -13 -13 -13 -13 -13
Wind_Speed
7 6 8 8 9 11 12 12 11 11 12 16 12 10 9 7 6 5 5 6 8 9 9 9 10 10 10 10 9 10 9 9 8 6 5 5 4 4 4 4 5 5 5 6
6 7 7 6 9 12 12 10 11 10 12 13 9 6 7 8 7 7 7 7 7 8 9 10 11 11 10 10 10 10 10 8 7 6 5 5 4 4 4 4 5 5 6 7
5 3 4 8 11 12 9 9 11 14 16 10 6 9 9 8 8 8 7 6 6 7 8 9 10 10 11 10 9 9 8 7 6 6 5 5 4 3 4 5 5 6 7 7
5 5 7 9 6 10 11 10 12 10 10 9 9 7 6 6 7 7 5 4 4 5 5 5 6 7 8 9 9 9 8 7 6 5 5 4 3 4 5 4 5 6 7 8
6 6 7 9 6 9 10 10 11 14 12 7 2 0 4 5 5 5 3 2 3 3 4 5 7 8 9 8 8 7 7 6 6 5 5 4 5 6 5 4 6 6 7 8
6 6 8 9 4 6 6 7 9 11 12 7 7 3 5 2 4 3 2 2 3 4 5 6 6 8 9 8 7 7 6 5 5 5 5 5 6 5 4 4 6 7 8 8
6 6 8 9 4 8 6 9 4 8 9 10 9 6 3 4 4 4 4 4 5 6 6 6 7 8 8 7 6 5 4 4 4 4 4 5 4 4 5 5 6 7 9 9
7 5 9 6 9 10 10 3 4 6 7 9 7 4 4 4 4 5 5 5 6 6 6 5 6 8 7 5 4 4 4 3 3 3 3 3 4 5 5 6 7 8 9 10
10 9 5 8 9 7 5 6 6 6 7 8 7 6 5 4 5 5 5 5 5 7 7 5 5 6 6 4 4 4 3 2 3 3 4 4 5 6 5 5 6 8 8 10
5 8 7 7 6 5 7 7 6 6 7 9 8 7 6 5 5 5 5 5 5 7 7 4 3 4 4 4 4 3 2 3 3 4 5 5 4 5 5 6 7 8 9 10
6 7 4 7 10 9 7 6 6 5 6 8 8 7 7 6 6 6 5 4 5 6 6 5 4 3 3 3 3 2 2 3 4 4 5 6 6 6 7 7 8 9 9 9
9 9 9 8 7 9 9 9 9 8 6 5 7 7 7 6 6 6 6 5 5 5 5 4 4 3 2 2 3 2 3 4 4 4 5 5 6 8 11 13 18 19 20 18
7 6 7 3 3 7 8 8 8 8 8 6 5 6 7 5 5 6 6 6 6 5 5 4 3 2 1 1 2 3 4 5 5 5 6 6 6 8 10 11 15 18 20 21
5 6 5 5 5 6 7 7 8 7 6 6 6 6 7 6 6 7 6 5 5 5 4 3 1 2 2 2 2 4 5 7 6 6 6 6 7 8 8 11 12 10 12 19
8 7 5 5 7 7 7 8 9 7 6 6 6 7 8 8 7 6 5 5 5 4 2 1 1 3 2 2 3 5 5 5 6 6 6 7 7 8 9 11 12 12 11 12
8 6 7 7 9 8 8 9 9 8 7 6 7 7 7 7 7 6 5 4 4 2 1 2 3 4 3 3 4 5 5 10 10 7 6 7 7 8 10 10 11 11 12 10
10 9 8 8 9 8 8 7 9 9 8 8 8 8 8 8 6 5 3 2 1 1 2 3 5 5 4 5 5 5 6 8 13 10 7 8 8 9 10 10 11 12 11 13
9 10 10 10 11 10 8 8 9 9 7 8 9 8 8 6 5 3 1 1 2 3 4 4 5 5 5 6 5 5 6 7 7 8 9 9 10 10 10 10 12 13 12 13
7 8 9 9 10 10 10 9 9 8 8 9 9 7 6 4 3 2 1 1 2 4 5 4 8 6 6 8 9 6 7 8 9 9 9 14 13 9 10 11 12 12 12 12
8 9 11 11 10 10 11 10 10 9 8 8 8 7 5 3 2 1 1 2 4 5 6 7 7 7 7 8 12 7 8 9 10 10 10 10 11 11 10 11 12 12 12 12
11 12 13 13 12 11 10 11 11 9 7 7 7 5 3 2 1 0 1 4 5 5 6 10 7 6 7 9 13 7 8 9 9 10 10 10 11 11 11 12 12 13 12 12
11 13 13 13 14 11 8 8 9 9 8 6 6 4 3 1 1 2 4 5 6 9 7 6 6 10 14 16 8 7 8 8 9 9 9 10 11 11 12 12 12 13 12 11
11 12 13 13 13 11 9 8 8 7 6 5 4 2 1 1 2 3 5 4 4 10 9 6 12 19 21 12 6 7 8 9 10 10 10 10 11 11 12 12 12 12 12 12
12 12 12 11 11 11 9 6 6 5 5 3 2 1 1 2 3 3 4 9 13 14 8 12 19 20 20 8 7 8 9 10 10 10 11 11 11 11 11 12 12 12 12 13
12 11 11 11 9 7 7 6 5 4 3 2 1 2 2 2 3 5 5 7 12 14 8 12 19 20 13 8 9 9 10 10 12 12 10 10 11 11 12 12 12 12 12 12
9 9 7 7 6 6 5 4 3 2 2 2 2 2 3 3 4 5 6 7 9 14 10 8 10 13 9 10 10 11 11 12 13 12 11 12 12 12 12 12 13 12 12 12
10 8 7 6 5 5 4 3 3 2 2 2 4 4 4 5 5 6 7 7 8 9 9 9 9 9 10 10 11 11 11 11 11 11 11 11 11 12 12 13 12 12 12 12
Wind_Direction
202 180 164 187 194 187 198 205 211 230 235 252 254 254 264 271 270 256 244 225 214 210 204 197 192 189 185 180 172 166 165 172 182 181 180 185 199 215 226 238 249 258 268 275
207 201 190 210 213 201 213 221 229 249 262 253 250 244 253 256 254 253 250 238 224 213 203 199 195 190 182 178 172 165 170 177 174 171 178 193 208 220 237 256 265 268 270 274
205 183 146 242 217 199 202 207 197 224 242 251 243 241 241 245 239 240 246 240 225 214 209 203 195 184 181 174 162 163 168 168 169 172 185 202 212 226 248 260 265 273 273 273
148 131 215 238 220 195 205 224 211 222 240 236 230 239 240 227 222 233 238 233 224 211 202 188 169 161 155 150 156 160 162 166 170 175 193 205 219 242 255 257 262 268 272 274
147 191 260 287 245 184 192 245 221 222 239 238 201 281 287 229 206 211 215 206 199 182 163 148 148 147 141 144 148 153 164 173 178 182 195 214 237 252 257 260 268 268 270 274
143 173 222 239 231 160 134 258 241 204 219 196 142 177 259 208 164 150 119 117 123 120 119 130 136 136 137 144 151 168 177 179 179 184 200 224 242 256 256 257 268 276 277 273
158 198 247 245 174 125 162 237 239 189 193 170 183 198 187 122 114 113 106 106 115 118 121 133 136 134 137 145 168 174 159 163 179 196 215 233 246 252 263 271 278 280 281 280
154 184 243 210 149 180 211 206 176 177 174 176 187 154 132 130 128 125 117 115 120 120 116 121 133 135 139 157 161 143 148 168 200 222 237 243 250 266 268 272 281 284 285 287
184 205 226 179 195 208 176 186 192 180 179 167 168 175 163 155 150 143 139 134 127 127 121 117 128 135 144 155 144 142 155 201 234 250 253 250 252 265 275 272 273 281 283 288
212 251 242 227 233 222 196 198 192 178 165 163 168 171 167 161 160 155 147 142 134 131 131 130 129 125 138 145 145 150 192 237 251 261 270 267 257 253 260 266 270 276 280 286
220 258 277 253 224 212 194 188 167 155 163 168 163 166 170 171 170 164 151 142 141 143 143 145 140 133 137 146 147 173 227 251 261 260 265 272 266 254 260 250 256 271 275 276
209 211 194 225 218 184 179 186 176 160 153 155 165 166 161 164 161 154 149 141 137 138 140 144 142 141 148 158 166 197 248 261 262 266 269 268 276 284 274 273 281 282 284 286
201 192 185 214 174 172 179 179 168 164 159 152 151 151 147 145 146 142 139 141 145 146 144 142 142 160 204 202 200 223 248 263 266 265 269 272 275 282 292 294 286 287 288 291
173 139 165 196 188 168 153 139 129 120 121 130 132 129 128 126 131 137 141 142 135 130 131 140 163 238 250 238 240 252 259 271 274 264 266 269 271 274 279 289 297 293 289 291
192 187 180 151 127 126 125 125 123 126 122 112 117 128 133 135 139 136 127 121 118 117 125 149 256 274 278 265 261 266 268 268 267 264 264 266 269 274 277 282 286 292 294 293
166 146 138 145 151 146 141 144 145 148 141 132 129 129 128 125 121 116 113 116 120 143 215 259 270 273 280 274 274 273 270 282 288 278 270 273 274 278 282 284 286 289 291 293
146 164 170 171 171 168 166 160 154 149 141 138 137 129 121 116 112 108 100 90 106 216 256 262 270 282 282 273 268 268 269 280 291 290 279 278 279 280 281 283 285 287 287 290
183 180 173 169 167 159 148 138 135 136 136 135 129 124 124 126 129 129 104 53 13 318 285 267 271 282 278 276 272 268 271 273 275 277 280 280 282 280 280 282 285 287 289 292
155 150 146 144 144 141 137 133 130 124 122 125 125 122 118 115 117 116 82 11 321 302 292 289 304 303 287 286 294 272 273 279 283 282 282 287 291 284 282 284 286 287 290 292
123 122 120 117 115 121 124 123 120 116 116 119 116 110 104 99 100 89 337 280 259 256 272 288 292 282 280 284 296 279 276 280 284 287 287 287 288 288 286 287 288 288 289 289
121 119 117 114 108 106 114 120 120 116 111 111 114 117 115 103 80 357 298 295 286 275 283 296 298 288 290 291 296 283 280 283 287 289 290 291 291 290 290 289 290 291 291 290
118 117 115 114 111 104 98 102 109 110 106 100 99 102 96 45 329 298 263 257 278 302 306 287 286 295 303 303 293 287 286 288 291 291 288 288 289 290 290 289 289 289 288 287
113 114 112 112 112 107 96 91 97 103 105 103 102 98 89 281 278 287 300 289 292 304 308 290 300 306 308 309 297 292 292 291 291 290 288 286 285 285 286 287 287 287 287 287
109 107 107 106 106 104 98 91 89 90 91 86 81 70 305 305 298 261 263 302 312 310 304 302 309 310 314 312 299 294 292 290 288 287 286 285 284 285 285 287 288 287 287 286
108 108 108 107 103 103 107 104 91 81 72 52 1 322 290 263 272 292 294 298 307 312 304 307 311 313 314 300 296 293 291 288 289 290 287 289 288 288 287 286 285 286 286 286
105 104 98 97 104 109 108 102 93 74 46 2 334 315 305 294 288 292 296 297 297 308 310 303 302 305 301 296 294 293 292 293 294 293 289 288 287 287 287 287 285 286 286 286
97 98 98 92 84 89 94 93 87 55 10 337 316 313 315 315 311 308 306 306 305 304 303 302 300 298 297 296 295 294 294 293 292 291 291 290 290 289 289 288 288 288 288 287
Height
1474 1474 1479 1480 1483 1488 1490 1489 1493 1488 1485 1473 1469 1468 1466 1465 1465 1465 1465 1465 1466 1467 1469 1471 1474 1478 1481 1484 1488 1491 1494 1496 1499 1500 1501 1502 1502 1502 1501 1500 1499 1497 1495 1492
1472 1473 1476 1477 1477 1481 1482 1482 1483 1482 1478 1464 1463 1464 1463 1462 1462 1461 1461 1462 1463 1464 1465 1467 1470 1472 1476 1479 1483 1487 1490 1492 1495 1496 1497 1497 1497 1497 1496 1495 1493 1491 1489 1486
1476 1472 1475 1478 1470 1472 1474 1472 1473 1474 1465 1458 1460 1459 1458 1458 1458 1458 1459 1459 1460 1461 1462 1464 1466 1468 1471 1475 1479 1482 1486 1488 1490 1492 1493 1493 1493 1492 1491 1489 1487 1485 1483 1479
1476 1477 1481 1464 1455 1456 1460 1460 1461 1458 1455 1453 1454 1454 1454 1454 1455 1455 1456 1457 1458 1459 1460 1462 1463 1465 1468 1471 1475 1479 1482 1484 1486 1487 1488 1488 1488 1487 1485 1483 1481 1478 1476 1472
1477 1476 1471 1460 1452 1453 1457 1456 1450 1451 1449 1450 1451 1452 1451 1451 1452 1453 1455 1456 1457 1458 1458 1459 1461 1463 1465 1468 1472 1475 1478 1481 1482 1483 1484 1483 1483 1481 1480 1477 1474 1471 1468 1465
1473 1471 1470 1453 1443 1443 1450 1453 1441 1442 1444 1446 1450 1455 1451 1449 1450 1452 1453 1454 1455 1456 1457 1458 1460 1462 1464 1467 1470 1473 1475 1477 1479 1479 1479 1478 1477 1476 1473 1470 1467 1464 1460 1457
1466 1464 1460 1444 1441 1444 1456 1448 1436 1437 1438 1442 1445 1446 1447 1447 1449 1450 1452 1453 1454 1455 1456 1457 1459 1461 1463 1466 1469 1471 1473 1474 1475 1475 1474 1473 1472 1469 1467 1463 1460 1456 1452 1449
1462 1462 1456 1435 1440 1442 1438 1433 1434 1434 1436 1439 1441 1443 1445 1446 1448 1449 1450 1452 1453 1454 1455 1456 1458 1461 1463 1465 1467 1468 1469 1470 1470 1470 1469 1467 1465 1463 1460 1456 1452 1448 1443 1439
1439 1438 1429 1428 1428 1429 1430 1431 1432 1433 1435 1437 1439 1441 1443 1445 1447 1448 1449 1450 1451 1453 1454 1456 1458 1460 1461 1463 1464 1465 1466 1466 1466 1465 1464 1461 1459 1456 1452 1449 1444 1440 1435 1429
1433 1429 1425 1424 1425 1426 1427 1429 1430 1432 1434 1436 1437 1440 1442 1443 1445 1446 1447 1449 1450 1452 1453 1455 1456 1458 1459 1460 1461 1461 1462 1461 1461 1459 1457 1455 1452 1449 1445 1441 1437 1432 1427 1422
1427 1423 1421 1420 1420 1422 1424 1426 1428 1430 1432 1434 1436 1438 1439 1441 1442 1444 1445 1447 1448 1450 1452 1453 1454 1456 1456 1457 1457 1457 1457 1456 1454 1452 1450 1447 1444 1441 1437 1433 1430 1425 1420 1415
1418 1413 1415 1414 1415 1418 1420 1422 1425 1427 1430 1432 1434 1435 1437 1438 1440 1441 1443 1445 1446 1448 1450 1451 1452 1453 1453 1453 1453 1452 1451 1450 1448 1445 1442 1439 1435 1431 1428 1426 1421 1417 1413 1409
1405 1407 1409 1411 1412 1414 1417 1419 1422 1425 1427 1429 1431 1433 1434 1436 1438 1439 1441 1443 1444 1446 1448 1449 1450 1450 1450 1449 1449 1447 1445 1443 1441 1438 1435 1431 1427 1422 1417 1414 1411 1408 1404 1400
1402 1404 1406 1408 1409 1411 1414 1417 1420 1422 1425 1427 1429 1430 1432 1434 1435 1437 1439 1441 1443 1444 1445 1446 1447 1447 1446 1445 1443 1442 1439 1437 1433 1430 1427 1423 1419 1415 1410 1404 1399 1395 1393 1390
1398 1400 1403 1404 1406 1409 1411 1414 1417 1419 1422 1424 1426 1428 1430 1432 1434 1435 1437 1439 1441 1442 1443 1443 1443 1443 1441 1439 1437 1435 1432 1429 1426 1422 1419 1415 1411 1407 1402 1397 1392 1386 1382 1379
1393 1396 1399 1401 1403 1405 1408 1411 1414 1416 1419 1421 1424 1426 1428 1430 1432 1434 1436 1437 1438 1439 1439 1439 1438 1437 1436 1434 1431 1428 1425 1422 1418 1414 1410 1406 1402 1398 1393 1389 1384 1379 1375 1371
1388 1391 1394 1397 1399 1402 1405 1408 1411 1414 1417 1419 1422 1425 1427 1429 1431 1432 1434 1435 1436 1436 1436 1435 1433 1432 1430 1427 1424 1421 1417 1414 1411 1407 1402 1398 1394 1389 1385 1381 1376 1372 1367 1364
1383 1386 1389 1392 1395 1399 1402 1406 1409 1412 1415 1418 1421 1423 1425 1427 1429 1431 1432 1432 1432 1432 1432 1430 1428 1426 1423 1421 1417 1413 1410 1406 1402 1398 1393 1389 1385 1381 1377 1373 1368 1363 1358 1354
1379 1383 1386 1390 1393 1397 1400 1404 1408 1411 1414 1417 1420 1422 1424 1426 1428 1428 1429 1429 1428 1427 1426 1424 1422 1419 1417 1414 1410 1405 1402 1397 1393 1389 1385 1381 1377 1373 1369 1364 1359 1355 1350 1345
1376 1380 1383 1387 1391 1395 1399 1403 1407 1411 1414 1417 1419 1422 1423 1425 1425 1426 1426 1425 1425 1422 1420 1418 1415 1412 1409 1405 1402 1397 1393 1389 1385 1380 1376 1372 1368 1363 1359 1355 1350 1346 1341 1337
1374 1378 1382 1386 1391 1395 1400 1403 1407 1410 1414 1417 1419 1420 1422 1422 1423 1422 1421 1421 1420 1417 1415 1412 1409 1405 1401 1397 1393 1389 1385 1381 1376 1372 1368 1363 1359 1354 1350 1345 1341 1337 1333 1328
1374 1378 1382 1387 1391 1396 1401 1405 1408 1411 1414 1416 1418 1419 1419 1420 1419 1419 1418 1416 1414 1411 1408 1405 1401 1397 1393 1389 1385 1381 1377 1372 1368 1363 1359 1354 1349 1345 1340 1336 1332 1328 1324 1320
1376 1380 1384 1389 1393 1397 1402 1406 1409 1412 1414 1415 1416 1417 1417 1416 1415 1414 1412 1410 1408 1404 1401 1397 1394 1390 1386 1381 1377 1372 1368 1363 1359 1354 1350 1345 1341 1336 1332 1328 1324 1320 1316 1312
1379 1383 1388 1392 1396 1400 1403 1407 1409 1411 1413 1414 1414 1414 1413 1412 1411 1410 1407 1404 1401 1397 1394 1390 1386 1382 1377 1373 1368 1363 1359 1354 1349 1345 1341 1336 1332 1328 1324 1319 1315 1311 1307 1303
1382 1387 1391 1395 1399 1402 1405 1407 1409 1410 1411 1412 1412 1411 1410 1408 1406 1403 1401 1398 1394 1390 1386 1382 1378 1374 1369 1364 1359 1355 1350 1346 1341 1337 1332 1328 1324 1319 1315 1311 1307 1303 1299 1295
1386 1390 1394 1398 1400 1403 1405 1407 1408 1409 1409 1409 1409 1408 1406 1404 1401 1398 1394 1391 1387 1383 1379 1374 1370 1365 1361 1356 1351 1347 1342 1337 1333 1329 1324 1320 1315 1311 1307 1302 1298 1294 1290 1286
1389 1393 1396 1399 1401 1403 1405 1406 1407 1407 1406 1405 1404 1403 1400 1398 1395 1391 1388 1384 1380 1376 1371 1367 1362 1357 1353 1348 1343 1339 1334 1329 1325 1320 1316 1311 1307 1303 1298 1294 1290 1286 1282 1278